Regional Weather Roundup
Issued by NWS Grand Forks, ND

Home | Current Version | Previous Version | Text Only | Print | Product List | Glossary Off
Versions: 1 2 3 4 5 6 7 8 9 10 11 12 13 14 15 16 17 18 19 20 21 22 23 24 25 26 27 28 29 30 31 32 33 34 35 36 37 38 39 40 41 42 43 44 45 46 47 48 49 50

302
ASUS43 KFGF 201431
RWRFGF
PRAIRIE TO PINES  WEATHER ROUNDUP
NATIONAL WEATHER SERVICE EASTERN NORTH DAKOTA/GRAND FORKS ND
800 AM CST MON FEB 20 2017

 **SATELLITE DATA USED TO AUGMENT SKY COVER AT AUTOMATED STATIONS**
 *****  WEATHER ACROSS EASTERN NORTH DAKOTA  *****

CITY           SKY/WX    TMP DP  RH WIND       PRES   REMARKS
GRAND FORKS    RAIN      39  36  89 S6        29.62R VSB 1/4
GRAND FRKS AFB LGT RAIN  39  39 100 S3        29.61F FOG
DEVILS LAKE    LGT RAIN  34  34 100 NW7       29.63R
FARGO          LGT RAIN  51  48  89 SE21G30   29.60F
WAHPETON ARPT  CLOUDY    46  45  93 SE10      29.66S
$$

 ***** WEATHER ACROSS CENTRAL AND WESTERN NORTH DAKOTA  *****

CITY           SKY/WX    TMP DP  RH WIND       PRES   REMARKS
BISMARCK       LGT RAIN  37  35  92 NW10      29.69R FOG
MINOT          CLOUDY    35  32  88 W12       29.69R FOG
JAMESTOWN      LGT RAIN  38  36  92 NW15      29.62R
MINOT AFB      CLOUDY    32  32 100 NW10      29.68R FOG     WCI  24
GARRISON         N/A     33  32  96 W7        29.68R
WILLISTON      FAIR      32  31  96 SW10      29.73R FOG     WCI  24
DICKINSON      FAIR      36  32  85 W10       29.70R
HETTINGER      CLOUDY    37  33  85 NW7       29.74S
$$

 *****  OTHER AIRPORT OBSERVATIONS IN OUR AREA  *****

CITY           SKY/WX    TMP DP  RH WIND       PRES   REMARKS
WALHALLA       NOT AVBL
GRAFTON AIRPOR FOG       34  34 100 CALM      29.62F VSB<1/4
VALLEY CITY AR MIX PCPN  41  41 100 S7        29.64R VSB 1
CANDO          NOT AVBL
CAVALIER APRT  MIX PCPN  36  36 100 W5        29.62R VSB<1/4
GWINNER        FAIR      50  48  93 S16       29.61S
SHEYENNE NWR     N/A     47  47  99 SE9       29.95S
ROLLA          CLOUDY    32  32 100 N8        29.61F FOG     WCI  25
 ***** THE ABOVE OBSERVATIONS ARE NON NWS ARE NOT QUALITY
       CONTROLLED AND MAY MIS-REPORT RAIN FOR SNOW...
$$

  *****  WEATHER ACROSS NORTHERN MINNESOTA  *****

CITY           SKY/WX    TMP DP  RH WIND       PRES   REMARKS
FLAG ISLAND    DRIZZLE   39  36  87 SE9G20    29.64F
WARROAD        RAIN      41  37  87 S7        29.68R
ROSEAU         LGT RAIN  41  36  81 S10       29.65R
HALLOCK        FOG       36  36 100 S6        29.61S VSB 3/4
THF RVR FALLS  FAIR      43  41  93 SE10      29.65R FOG
BAUDETTE       LGT RAIN  40  37  89 SE13      29.69F
WASKISH        MOCLDY    45  39  81 SE5G16    29.70F
CROOKSTON      LGT RAIN  45  45 100 S13       29.64R
STEPHEN NDAWN    N/A     41  41 100 S10         N/A
GREENBUSH NDAW   N/A     37  37 100 S9          N/A
$$
  *****  WEATHER ACROSS CENTRAL AND WEST MINNESOTA  *****

CITY           SKY/WX    TMP DP  RH WIND       PRES   REMARKS
FOSSTON        LGT RAIN  41  39  93 S7        29.68R
BEMIDJI        CLOUDY    40  37  89 SE10      29.70R
PARK RAPIDS    CLOUDY    45  40  82 SE6       29.70S
ELBOW LAKE     CLOUDY    49  48  97 S15       29.69R FOG
WADENA         CLOUDY    45  45 100 SE5       29.69S FOG
DETROIT LAKES  LGT RAIN  43  41  93 SE9       29.68S
MOORHEAD       LGT RAIN  48  46  93 S18       29.66R
FERGUS FALLS   CLOUDY    48  48 100 S8        29.71R FOG
MORRIS MN      CLOUDY    50  48  93 S16       29.69R FOG
STAPLES        FAIR      46  45  93 SE8       29.71S
$$
  *****  WEATHER ELSEWHERE ACROSS MINNESOTA  *****

CITY           SKY/WX    TMP DP  RH WIND       PRES   REMARKS
DULUTH         FAIR      40  34  79 SE17      29.86S
INTRNTL FALLS  CLOUDY    42  35  76 SE7       29.77R
ELY            FAIR      41  34  75 SE12      29.86S
CLOQUET        MOCLDY    39  34  81 E5        29.86R
WHEATON        RAIN      50  46  87 SE13G18   29.67R
BRAINERD       MOCLDY    46  41  82 SE6       29.75F
HIBBING        CLOUDY    40  35  83 SE10      29.82S
ALEXANDRIA     MOCLDY    50  48  93 S13       29.68F
SAINT CLOUD    CLOUDY    50  45  83 SE10      29.76S
MINNEAPOLIS    CLOUDY    49  43  80 E7        29.81F
$$

  *****  WEATHER ACROSS SOUTH DAKOTA  *****

CITY           SKY/WX    TMP DP  RH WIND       PRES   REMARKS
SIOUX FALLS    LGT RAIN  55  54  96 S14       29.69F FOG
BROOKINGS      CLOUDY    52  51  97 S12G20    29.67F FOG
WATERTOWN      CLOUDY    49  49 100 S12       29.64F FOG
HURON          CLOUDY    52  51  97 S13       29.60F
SISSETON         N/A     54  52  93 S16       29.63R
ABERDEEN       RAIN      50  47  89 S17       29.60F FOG
MITCHELL       CLOUDY    52  51  97 SE12      29.62F FOG
PIERRE         CLOUDY    44  37  76 NW26G35   29.63R
MOBRIDGE       CLOUDY    40  34  79 NW22G29   29.62R
RAPID CITY     FAIR      41  36  82 N7        29.77R
$$

  *****  SOME WEATHER IN NEARBY STATES *****

CITY           SKY/WX    TMP DP  RH WIND       PRES   REMARKS
GLASGOW MT     FAIR      30  28  92 W3        29.72S
GREAT FALLS MT FAIR      31  22  69 SW10      29.70F WCI  22
CHEYENNE WY    FAIR      36  18  48 NW16G25   29.93R
SCOTTSBLUFF NE FAIR      31  20  63 W7        29.87R WCI  24
OMAHA NE       LGT RAIN  58  55  90 S13       29.76R FOG
DES MOINES IA  LGT RAIN  59  55  87 S14       29.84S
DAVENPORT IA   CLOUDY    51  50  96 SE16      30.02R FOG
CHICAGO IL     PTSUNNY   49  45  86 SE8       30.13S FOG
EAU CLAIRE WI  FAIR      45  38  76 E10       29.90F
LA CROSSE WI   FAIR      54  46  74 SE10      29.93F
$$

  *****  SOME NATIONAL WEATHER *****

CITY           SKY/WX    TMP DP  RH WIND       PRES   REMARKS
LA GUARDIA NY  FAIR      47  32  56 NW14      30.17R
RALEIGH NC     FAIR      56  42  59 N5        30.23R
ATLANTA GA     PTSUNNY   57  48  72 E7        30.20R
NEW ORLEANS LA PTSUNNY   70  67  90 SE12      30.04R
OKLAHOMA CITY  CLOUDY    54  53  97 S6        29.84S
ALBUQUERQUE NM FAIR      38  33  82 E5        30.15R
SALT LAKE CITY MOCLDY    46  34  62 S16G24    30.00R
LOS ANGELES CA CLOUDY    53  52  96 E10       30.20S FOG
BOISE ID       FAIR      46  35  65 SE16      29.72F
SEATTLE WA     CLOUDY    41  39  93 CALM      29.51F
$$

*** WEATHER ACROSS MANITOBA...SASKATCHEWAN AND ONTARIO ***
                ***ONTARIO***

CITY           SKY/WX    TMP DP  RH WIND       PRES   REMARKS
GERALDTON      MOCLDY    28  23  80 SE7       30.14F WCI  21
THUNDER BAY    CLOUDY    36  32  87 E15       30.06F
SIOUX LOOKOUT  LGT RAIN  39  30  70 SE10G20   29.80F
TORONTO        MOSUNNY   34  25  69 NE7       30.35R
BIG TROUT LK   FLURRIES  27  23  86 SE13      29.93F WCI  16
PICKLE LAKE    MOCLDY    34  27  75 SE21G30   29.88F WCI  22
DRYDEN         LGT RAIN  39  34  81 SE12G17   29.77R
KENORA         LGT RAIN  41  37  87 S13       29.69F
$$
                *** MANITOBA***

CITY           SKY/WX    TMP DP  RH WIND       PRES   REMARKS
BRANDON        CLOUDY    34  32  93 W12       29.62S FOG
DAUPHIN        CLOUDY    30  28  93 W9        29.60F WCI  22
ISLAND LAKE    FRZ RAIN  32  28  86 E8        29.72  WCI  25
PILOT MOUND      N/A     34  34 100 N5          N/A
THE PAS        CLOUDY    25  21  86 NE3       29.64F
THOMPSON       LGT SNOW  23  19  86 NE7       29.74F WCI  15
WINNIPEG       DRZL/FOG  36  36 100 SW9       29.61R VSB 1/2
LYNN LAKE      LGT SNOW  18  18 100 E12       29.70F VSB 1   WCI   5
CHURCHILL      CLOUDY    12  10  92 E12       30.09F WCI  -2
GILLAM         CLOUDY    21  18  86 E8G18     29.89F WCI  12
$$
                ***SASKATCHEWAN***

CITY           SKY/WX    TMP DP  RH WIND       PRES   REMARKS
ESTEVAN        FOG       30  30 100 W7        29.68R VSB 1/2 WCI  23
KINDERSLEY     CLOUDY    32  30  93 W7        29.61S
LLOYDMINSTER   FOG       32  32 100 W9        29.56R VSB 1   WCI  24
PRINCE ALBERT  FOG       30  30 100 S2        29.58S VSB 1/2
REGINA         FOG       28  28 100 S6        29.65R VSB 3/8 WCI  22
YORKTON        CLOUDY    30  30 100 SW3       29.63F FOG
N. BATTLEFORD  CLOUDY    34  34 100 SW9       29.61R
LA RONGE       FLURRIES  25  23  93 E6        29.59S WCI  18
SASKATOON      CLOUDY    34  32  93 W8        29.62R FOG
SWIFT CURRENT  CLEAR     30  27  86 W9        29.61S WCI  22
$$
NOTE: THESE ARE AUTOMATED STATIONS WITH LIMITED QUALITY CONTROL
      "FAIR" INDICATES FEW OR NO CLOUDS BELOW 12,000 FEET WITH NO
      SIGNIFICANT WEATHER AND/OR OBSTRUCTIONS TO VISIBILITY.
      SKY/WX - SKY CONDITION AND SIGNIFICANT WEATHER.
      TMP - AIR TEMPERATURE.    DP   - DEWPOINT TEMPERATURE.
      RH  - RELATIVE HUMIDITY.  PRES - PRESSURE.
      HX  - HEAT INDEX.         WCI  - WIND CHILL INDEX.
$




USA.gov is the U.S. government's official web portal to all federal, state and local government web resources and services.